Regional Weather Roundup
Issued by NWS

Home | Current Version | Previous Version | Graphics & Text | Print | Product List | Glossary On
Versions: 1 2 3 4 5 6 7 8 9 10 11 12 13 14 15 16 17 18 19 20 21 22 23 24 25 26 27 28 29 30 31 32 33 34 35 36 37 38 39 40 41 42 43 44 45 46 47 48 49 50
000
ASUS43 KLOT 291710
RWRIL

ILLINOIS REGIONAL WEATHER ROUNDUP
NATIONAL WEATHER SERVICE CHICAGO/ROMEOVILLE IL
1200 PM CDT TUE JUL 29 2014

NOTE: "FAIR" INDICATES FEW OR NO CLOUDS BELOW 12,000 FEET WITH NO
SIGNIFICANT WEATHER AND/OR OBSTRUCTIONS TO VISIBILITY.

* THESE STATIONS ARE NOT UNDER NWS QUALITY CONTROL. THEY ALSO MAY NOT
  REPORT WEATHER SUCH AS PRECIPITATION OR FOG.

ILZ001-002-007-009-015-016-024-291800-
NORTHWEST ILLINOIS

CITY           SKY/WX    TMP DP  RH WIND       PRES   REMARKS
MOLINE         MOSUNNY   76  56  49 NW9       30.11S
STERLING*      SUNNY     77  59  53 NW13      30.09S
SAVANNA*       SUNNY     77  55  46 NW9       30.08F
$$

ILZ003-004-008-010-011-017-018-291800-
NORTH CENTRAL ILLINOIS

CITY           SKY/WX    TMP DP  RH WIND       PRES   REMARKS
ROCKFORD       MOSUNNY   76  56  49 NW14      30.07F
FREEPORT*      SUNNY     75  59  57 NW8       30.09F
ROCHELLE*      SUNNY     76  55  47 NW10G16   30.07F
DE KALB*       SUNNY     73  56  57 NW9G16    30.07S
PERU*          SUNNY     75  57  52 NW12G18   30.08F
$$

ILZ005-006-012>014-019>023-291800-
NORTHEAST ILLINOIS

CITY           SKY/WX    TMP DP  RH WIND       PRES   REMARKS
CHICAGO-OHARE  MOSUNNY   77  52  41 NW13G21   30.04S
CHICAGO-MIDWAY MOSUNNY   78  55  44 NW13      30.03F
AURORA         SUNNY     76  55  48 NW10G18   30.06F
LANSING*       MOSUNNY   75  53  45 W8G20     30.04S
JOLIET*        SUNNY     75  53  46 NW7       30.06S
WAUKEGAN       SUNNY     74  55  51 W9        30.02F
DUPAGE AIRPORT SUNNY     76  56  49 NW15      30.04F
KANKAKEE*      MOSUNNY   75  58  55 W12       30.06F
WHEELING       SUNNY     77  54  44 N16G22    30.05S
MORRIS*        SUNNY     76  58  52 NW8G17    30.06S
ROMEOVILLE*    SUNNY     75  54  47 NW12      30.05S
NORTHERLY ISL    N/A     69  60  73 NE10        N/A
$$

LMZ740>746-291800-
SOUTHERN LAKE MICHIGAN

STATION/POSITION SKY/WX   TEMP    WIND        PRES    VSBY  WAVE
                          AIR SEA DIR/SP/G                  HT/PER
                          (F)     (DEG/KT/KT) (MB)    (MI)  (FT/S)
SOUTHERN BUOY              61 61  300/  8/  8 1017.1R         1
WAUKEGAN HARBOR            72     320/  6/ 15   N/A
HARRISON CRIB              67      30/  6/  7   N/A
BURNHAM HARBOR             70      70/  7/ 11   N/A
CALUMET HARBOR             74     290/  9/ 14 1015.7F
MICHIGAN CITY              68     280/  9/ 11   N/A
MICHIGAN CITY 6N           66 68  320/  8/ 10   N/A           1/ 3
ST. JOSEPH                 63 67  290/ 10/ 12   N/A           2/ 3
$$

ILZ025>027-034>036-040-047-049-050-058-095>099-291800-
WEST-CENTRAL ILLINOIS

CITY           SKY/WX    TMP DP  RH WIND       PRES   REMARKS
QUINCY         SUNNY     74  55  51 N6        30.15S
GALESBURG*     MOSUNNY   78  60  54 W8        30.12F
MACOMB*        SUNNY     73  56  56 NW8       30.16S
JACKSONVILLE*  MOSUNNY   75  58  54 W7        30.15S
PITTSFIELD*    PTSUNNY   73  57  57 NW5       30.16S
$$

ILZ028>032-037-038-041>044-048-051>054-059>061-291800-
CENTRAL ILLINOIS

CITY           SKY/WX    TMP DP  RH WIND       PRES   REMARKS
PONTIAC        SUNNY     75  57  53 NW12      30.07F
DECATUR        SUNNY     75  55  49 NW10      30.12S
PEORIA         SUNNY     77  55  46 NW8       30.11F
LACON*         SUNNY     75  54  47 NW8       30.08F
LINCOLN*       SUNNY     76  56  49 NW3       30.09F
SPRINGFIELD    SUNNY     76  56  49 W8        30.13S
TAYLORVILLE    SUNNY     72  55  56 N9        30.13S
$$

ILZ033-039-045-046-055>057-062-063-291800-
EAST-CENTRAL ILLINOIS

CITY           SKY/WX    TMP DP  RH WIND       PRES   REMARKS
CHAMPAIGN      MOSUNNY   74  57  55 NW12      30.10S
DANVILLE*      SUNNY     72  59  63 NW8       30.06S HAZE
RANTOUL*       SUNNY     76  56  50 NW10      30.09F
MATTOON        MOSUNNY   74  57  55 NW12      30.10S
PARIS*         MOSUNNY   74  60  63 N5        30.10S
$$

ILZ079-100>102-291800-
SOUTHWEST ILLINOIS

CITY           SKY/WX    TMP DP  RH WIND       PRES   REMARKS
ALTON          PTSUNNY   73  61  64 W3        30.16S
BELLEVILLE     MOSUNNY   76  54  47 N8        30.14S
CAHOKIA*       PTSUNNY   77  53  43 MISG      30.15S
SPARTA*        PTSUNNY   73  54  49 NW5       30.16S
$$

ILZ064>066-069>071-074>076-080>082-084>086-088>090-092>094-291800-
SOUTH-CENTRAL ILLINOIS

CITY           SKY/WX    TMP DP  RH WIND       PRES   REMARKS
CARBONDALE     MOSUNNY   75  52  44 N5        30.15S
CAIRO*         MOSUNNY   75  52  44 NE3       30.15F
EFFINGHAM*     SUNNY     76  51  41 NW10G16   30.12S
MARION         MOSUNNY   75  52  43 N9        30.16S
MT. VERNON     SUNNY     73  54  49 CALM      30.15S
CENTRALIA*     SUNNY     83  52  34 NW5       30.14S HX  82
SALEM*         SUNNY    N/A N/A N/A NW9       30.13F
METROPOLIS*    SUNNY     75  45  33 N5        30.14S
$$

ILZ067-068-072-073-078-083-087-091-291800-
SOUTHEAST ILLINOIS

CITY           SKY/WX    TMP DP  RH WIND       PRES   REMARKS
FLORA*         SUNNY     74  54  48 NW9G17    30.12F
FAIRFIELD*     SUNNY     75  57  53 W5        30.12F
HARRISBURG*    MOSUNNY   74  55  51 NW9       30.15S
ROBINSON*      SUNNY     75  60  59 NW8       30.11S
CARMI*         MOSUNNY   75  61  60 W8        30.13R
$$

ABBREVIATIONS USED IN REMARKS
   TC - TEMPERATURE IN CELSIUS
  WCI - WIND CHILL INDEX
   HX - HEAT INDEX
  VSB - VISIBILITY
$$




USA.gov is the U.S. government's official web portal to all federal, state and local government web resources and services.